�������l�o���
Date,Time,MP-1(��Sv/h),MP-2(��Sv/h),MP-3(��Sv/h),MP-4(��Sv/h),MP-5(��Sv/h),MP-6(��Sv/h),MP-7(��Sv/h),MP-8(��Sv/h),����,����(m/s),���J
2022/01/12,00:00,0.565,0.843,0.542,1.034,0.719,0.346,0.604,0.573,��,2.0,��
2022/01/12,00:10,0.568,0.840,0.540,1.032,0.719,0.346,0.604,0.572,�k�k��,3.5,��
2022/01/12,00:20,0.566,0.843,0.543,1.035,0.717,0.347,0.603,0.573,�k��,6.7,��
2022/01/12,00:30,0.567,0.842,0.541,1.033,0.721,0.346,0.604,0.573,���k��,8.0,��
2022/01/12,00:40,0.567,0.842,0.541,1.034,0.720,0.347,0.604,0.573,���k��,6.2,��
2022/01/12,00:50,0.567,0.841,0.541,1.034,0.720,0.348,0.604,0.573,���k��,5.9,��
2022/01/12,01:00,0.567,0.842,0.541,1.036,0.720,0.348,0.605,0.573,���k��,5.8,��
2022/01/12,01:10,0.567,0.843,0.541,1.035,0.720,0.346,0.605,0.572,�k��,8.4,��
2022/01/12,01:20,0.567,0.844,0.540,1.034,0.721,0.347,0.604,0.572,�k��,7.3,��
2022/01/12,01:30,0.568,0.843,0.541,1.036,0.720,0.345,0.602,0.573,�k��,7.0,��
2022/01/12,01:40,0.567,0.844,0.540,1.037,0.722,0.346,0.604,0.573,�k��,6.0,��
2022/01/12,01:50,0.567,0.842,0.542,1.034,0.721,0.348,0.604,0.572,���k��,7.1,��
2022/01/12,02:00,0.569,0.842,0.540,1.038,0.721,0.346,0.604,0.572,���k��,5.2,��
2022/01/12,02:10,0.567,0.845,0.542,1.038,0.722,0.348,0.603,0.572,���k��,4.0,��
2022/01/12,02:20,0.567,0.841,0.542,1.036,0.719,0.347,0.604,0.572,��,4.9,��
2022/01/12,02:30,0.567,0.843,0.542,1.034,0.722,0.347,0.604,0.572,��,6.3,��
2022/01/12,02:40,0.567,0.844,0.544,1.034,0.721,0.348,0.604,0.574,��,5.6,��
2022/01/12,02:50,0.566,0.844,0.542,1.036,0.722,0.347,0.603,0.573,��,4.0,��
2022/01/12,03:00,0.567,0.846,0.541,1.033,0.723,0.348,0.603,0.573,��,5.4,��
2022/01/12,03:10,0.567,0.845,0.541,1.036,0.721,0.347,0.604,0.574,���k��,4.1,��
2022/01/12,03:20,0.567,0.846,0.541,1.037,0.723,0.347,0.604,0.573,�k��,4.4,��
2022/01/12,03:30,0.565,0.843,0.541,1.036,0.721,0.349,0.602,0.572,�k��,5.7,��
2022/01/12,03:40,0.567,0.845,0.541,1.034,0.723,0.348,0.604,0.572,�k��,4.4,��
2022/01/12,03:50,0.568,0.842,0.543,1.037,0.724,0.348,0.603,0.573,�k��,4.1,��
2022/01/12,04:00,0.566,0.846,0.541,1.038,0.723,0.346,0.604,0.572,���k��,5.1,��
2022/01/12,04:10,0.568,0.844,0.542,1.037,0.725,0.348,0.604,0.574,���k��,6.0,��
2022/01/12,04:20,0.566,0.846,0.542,1.038,0.723,0.346,0.604,0.572,���k��,6.7,��
2022/01/12,04:30,0.566,0.846,0.542,1.036,0.721,0.347,0.603,0.575,��,5.0,��
2022/01/12,04:40,0.568,0.844,0.543,1.038,0.723,0.348,0.603,0.575,��,6.0,��
2022/01/12,04:50,0.567,0.844,0.542,1.037,0.722,0.348,0.604,0.574,��,6.5,��
2022/01/12,05:00,0.568,0.844,0.542,1.037,0.723,0.348,0.602,0.572,���쐼,6.7,��
2022/01/12,05:10,0.567,0.845,0.542,1.038,0.723,0.347,0.602,0.574,���쐼,6.4,��
2022/01/12,05:20,0.566,0.845,0.541,1.038,0.723,0.347,0.605,0.573,���쐼,8.2,��
2022/01/12,05:30,0.567,0.844,0.542,1.038,0.722,0.346,0.604,0.572,��,8.4,��
2022/01/12,05:40,0.567,0.846,0.542,1.038,0.723,0.347,0.605,0.573,���쐼,8.4,��
2022/01/12,05:50,0.566,0.844,0.542,1.039,0.722,0.346,0.605,0.573,��,9.4,��
2022/01/12,06:00,0.566,0.845,0.540,1.041,0.722,0.347,0.605,0.575,��,9.3,��
2022/01/12,06:10,0.567,0.844,0.541,1.038,0.721,0.346,0.605,0.574,��,9.4,��
2022/01/12,06:20,0.566,0.842,0.539,1.039,0.721,0.345,0.604,0.574,��,6.9,��
2022/01/12,06:30,0.566,0.844,0.539,1.039,0.722,0.345,0.603,0.574,��,11.4,��
2022/01/12,06:40,0.565,0.845,0.539,1.039,0.721,0.345,0.605,0.573,��,10.5,��
2022/01/12,06:50,0.566,0.844,0.538,1.037,0.720,0.343,0.605,0.572,��,8.2,��
2022/01/12,07:00,0.566,0.842,0.537,1.038,0.719,0.344,0.605,0.572,��,7.9,��
2022/01/12,07:10,0.565,0.844,0.539,1.039,0.721,0.344,0.606,0.574,��,7.2,��
2022/01/12,07:20,0.566,0.844,0.538,1.038,0.722,0.344,0.604,0.574,��,7.4,��
2022/01/12,07:30,0.564,0.844,0.538,1.040,0.720,0.344,0.603,0.575,��,6.7,��
2022/01/12,07:40,0.567,0.845,0.538,1.038,0.720,0.345,0.604,0.573,��,8.2,��
2022/01/12,07:50,0.566,0.844,0.539,1.041,0.719,0.345,0.605,0.572,��,10.3,��
2022/01/12,08:00,0.566,0.843,0.539,1.040,0.722,0.345,0.605,0.575,��,8.9,��
2022/01/12,08:10,0.567,0.845,0.539,1.042,0.723,0.345,0.605,0.574,��,6.8,��
2022/01/12,08:20,0.568,0.844,0.538,1.042,0.722,0.346,0.603,0.575,��,7.0,��
2022/01/12,08:30,0.565,0.844,0.541,1.038,0.721,0.345,0.604,0.575,��,8.2,��
2022/01/12,08:40,0.566,0.845,0.539,1.039,0.723,0.345,0.604,0.574,���쐼,9.0,��
2022/01/12,08:50,0.567,0.844,0.541,1.040,0.723,0.346,0.605,0.574,���쐼,9.9,��
2022/01/12,09:00,0.567,0.845,0.541,1.041,0.725,0.345,0.605,0.575,���쐼,8.2,��
2022/01/12,09:10,0.568,0.847,0.543,1.040,0.723,0.345,0.604,0.575,���쐼,8.6,��
2022/01/12,09:20,0.567,0.845,0.541,1.041,0.725,0.346,0.605,0.575,��,9.6,��
2022/01/12,09:30,0.568,0.845,0.542,1.040,0.724,0.345,0.605,0.576,��,9.5,��
2022/01/12,09:40,0.570,0.848,0.542,1.039,0.724,0.345,0.603,0.574,���쐼,10.4,��
2022/01/12,09:50,0.569,0.847,0.541,1.040,0.724,0.346,0.605,0.574,��,11.7,��
2022/01/12,10:00,0.569,0.847,0.543,1.041,0.725,0.345,0.604,0.576,��,9.0,��
2022/01/12,10:10,0.570,0.848,0.542,1.042,0.726,0.346,0.606,0.575,��,10.9,��
2022/01/12,10:20,0.569,0.847,0.543,1.039,0.726,0.345,0.604,0.576,���쐼,7.8,��
2022/01/12,10:30,0.569,0.848,0.543,1.040,0.725,0.346,0.604,0.577,��,9.1,��
2022/01/12,10:40,0.569,0.848,0.544,1.041,0.728,0.348,0.604,0.576,���쐼,7.9,��
2022/01/12,10:50,0.572,0.848,0.543,1.041,0.729,0.347,0.606,0.575,��,8.1,��
2022/01/12,11:00,0.570,0.849,0.544,1.044,0.727,0.347,0.605,0.575,��,6.1,��
2022/01/12,11:10,0.569,0.848,0.543,1.042,0.726,0.347,0.605,0.575,��,7.4,��
2022/01/12,11:20,0.572,0.848,0.544,1.042,0.729,0.347,0.606,0.575,��,7.9,��
2022/01/12,11:30,0.570,0.851,0.542,1.043,0.728,0.347,0.606,0.576,��,7.6,��
2022/01/12,11:40,0.571,0.851,0.543,1.042,0.728,0.347,0.606,0.576,��,12.1,��
2022/01/12,11:50,0.572,0.849,0.544,1.044,0.727,0.347,0.607,0.577,��,9.1,��
2022/01/12,12:00,0.570,0.852,0.543,1.043,0.730,0.348,0.606,0.576,��,6.0,��
2022/01/12,12:10,0.569,0.851,0.545,1.045,0.728,0.348,0.606,0.576,���쐼,10.9,��
2022/01/12,12:20,0.570,0.852,0.544,1.044,0.727,0.348,0.606,0.577,��,8.0,��
2022/01/12,12:30,0.570,0.851,0.543,1.045,0.730,0.348,0.606,0.576,���k��,13.9,��
2022/01/12,12:40,0.571,0.854,0.545,1.042,0.730,0.348,0.607,0.577,��,12.4,��
2022/01/12,12:50,0.572,0.852,0.543,1.046,0.730,0.347,0.606,0.576,��,10.9,��
2022/01/12,13:00,0.571,0.854,0.543,1.044,0.730,0.347,0.605,0.576,��,12.4,��
2022/01/12,13:10,0.570,0.851,0.543,1.044,0.731,0.348,0.607,0.577,��,8.7,��
2022/01/12,13:20,0.573,0.853,0.542,1.044,0.730,0.346,0.606,0.577,��,8.4,��
2022/01/12,13:30,0.574,0.854,0.546,1.046,0.731,0.349,0.606,0.577,��,8.2,��
2022/01/12,13:40,0.571,0.854,0.544,1.045,0.733,0.347,0.606,0.579,��,6.5,��
2022/01/12,13:50,0.572,0.854,0.546,1.044,0.730,0.349,0.608,0.577,��,9.7,��
2022/01/12,14:00,0.571,0.852,0.545,1.047,0.731,0.348,0.607,0.579,��,11.3,��
2022/01/12,14:10,0.572,0.855,0.545,1.047,0.732,0.348,0.608,0.577,��,10.6,��
2022/01/12,14:20,0.572,0.851,0.546,1.045,0.732,0.348,0.607,0.576,��,10.2,��
2022/01/12,14:30,0.573,0.854,0.546,1.047,0.729,0.347,0.608,0.578,��,14.1,��
2022/01/12,14:40,0.573,0.852,0.545,1.046,0.731,0.348,0.608,0.577,��,11.1,��
2022/01/12,14:50,0.570,0.852,0.545,1.048,0.729,0.348,0.606,0.578,��,9.0,��
2022/01/12,15:00,0.573,0.852,0.544,1.046,0.731,0.349,0.606,0.577,��,10.2,��
2022/01/12,15:10,0.571,0.854,0.545,1.045,0.734,0.348,0.607,0.578,��,11.6,��
2022/01/12,15:20,0.572,0.853,0.545,1.046,0.732,0.349,0.605,0.577,��,10.0,��
2022/01/12,15:30,0.572,0.855,0.544,1.046,0.730,0.348,0.606,0.578,��,9.8,��
2022/01/12,15:40,0.571,0.856,0.546,1.045,0.734,0.347,0.607,0.577,��,9.5,��
2022/01/12,15:50,0.572,0.854,0.545,1.047,0.731,0.347,0.606,0.580,���쐼,7.2,��
2022/01/12,16:00,0.573,0.855,0.545,1.046,0.732,0.347,0.605,0.577,��,8.1,��
2022/01/12,16:10,0.572,0.856,0.542,1.048,0.733,0.348,0.606,0.578,��,9.1,��
2022/01/12,16:20,0.572,0.854,0.545,1.047,0.731,0.347,0.606,0.579,��,9.6,��
2022/01/12,16:30,0.571,0.854,0.545,1.046,0.732,0.348,0.607,0.579,��,7.6,��
2022/01/12,16:40,0.570,0.856,0.545,1.046,0.731,0.346,0.606,0.578,��,7.9,��
2022/01/12,16:50,0.571,0.855,0.545,1.045,0.731,0.347,0.606,0.579,��,8.6,��
2022/01/12,17:00,0.572,0.854,0.546,1.046,0.733,0.347,0.606,0.579,��,8.2,��
2022/01/12,17:10,0.570,0.855,0.544,1.046,0.732,0.348,0.606,0.578,��,7.7,��
2022/01/12,17:20,0.571,0.856,0.547,1.045,0.731,0.347,0.606,0.577,��,7.2,��
2022/01/12,17:30,0.571,0.854,0.546,1.047,0.731,0.346,0.606,0.578,��,5.2,��
2022/01/12,17:40,0.573,0.857,0.546,1.046,0.733,0.347,0.607,0.577,���쐼,2.5,��
2022/01/12,17:50,0.569,0.854,0.546,1.045,0.732,0.349,0.606,0.580,���쐼,2.8,��
2022/01/12,18:00,0.572,0.856,0.546,1.046,0.732,0.347,0.607,0.577,���k��,2.5,��
2022/01/12,18:10,0.570,0.855,0.545,1.046,0.732,0.348,0.607,0.578,��,4.3,��
2022/01/12,18:20,0.570,0.853,0.546,1.048,0.732,0.347,0.607,0.577,��,1.2,��
2022/01/12,18:30,0.571,0.855,0.546,1.044,0.734,0.346,0.606,0.576,���쐼,1.7,��
2022/01/12,18:40,0.572,0.855,0.548,1.047,0.732,0.346,0.605,0.577,��,4.2,��
2022/01/12,18:50,0.570,0.854,0.546,1.045,0.733,0.347,0.606,0.578,��,3.4,��
2022/01/12,19:00,0.571,0.855,0.546,1.046,0.731,0.348,0.607,0.578,��,2.6,��
2022/01/12,19:10,0.573,0.856,0.545,1.044,0.731,0.347,0.604,0.576,���k��,8.6,��
2022/01/12,19:20,0.571,0.855,0.544,1.046,0.732,0.348,0.607,0.578,��,4.5,��
2022/01/12,19:30,0.571,0.852,0.544,1.046,0.731,0.347,0.606,0.576,��,5.3,��
2022/01/12,19:40,0.571,0.855,0.546,1.047,0.734,0.349,0.607,0.578,�k��,7.9,��
2022/01/12,19:50,0.569,0.856,0.545,1.048,0.733,0.347,0.606,0.577,���k��,8.3,��
2022/01/12,20:00,0.570,0.854,0.545,1.045,0.733,0.346,0.606,0.578,���k��,9.5,��
2022/01/12,20:10,0.571,0.855,0.544,1.048,0.732,0.347,0.607,0.577,�k��,9.3,��
2022/01/12,20:20,0.572,0.853,0.545,1.048,0.733,0.347,0.608,0.577,�k��,8.8,��
2022/01/12,20:30,0.572,0.854,0.544,1.048,0.732,0.346,0.607,0.576,���k��,6.3,��
2022/01/12,20:40,0.571,0.855,0.545,1.046,0.730,0.345,0.607,0.576,���k��,8.8,��
2022/01/12,20:50,0.572,0.850,0.543,1.047,0.733,0.346,0.607,0.578,���k��,8.0,��
2022/01/12,21:00,0.573,0.854,0.544,1.048,0.731,0.346,0.606,0.578,���k��,9.0,��
2022/01/12,21:10,0.571,0.854,0.543,1.048,0.730,0.344,0.607,0.576,���k��,8.0,��
2022/01/12,21:20,0.569,0.853,0.544,1.045,0.730,0.346,0.608,0.577,���k��,8.8,��
2022/01/12,21:30,0.569,0.854,0.542,1.049,0.730,0.347,0.609,0.577,���k��,6.6,��
2022/01/12,21:40,0.570,0.856,0.545,1.045,0.730,0.345,0.607,0.578,�k��,10.0,��
2022/01/12,21:50,0.569,0.853,0.544,1.047,0.733,0.346,0.606,0.576,���k��,7.5,��
2022/01/12,22:00,0.569,0.854,0.545,1.047,0.732,0.349,0.608,0.576,�k��,8.9,��
2022/01/12,22:10,0.573,0.855,0.546,1.048,0.732,0.348,0.607,0.576,�k��,9.0,��
2022/01/12,22:20,0.570,0.856,0.546,1.046,0.732,0.347,0.608,0.577,���k��,7.8,��
2022/01/12,22:30,0.570,0.854,0.547,1.047,0.733,0.349,0.607,0.576,�k��,8.6,��
2022/01/12,22:40,0.572,0.855,0.545,1.049,0.733,0.348,0.607,0.577,�k��,8.2,��
2022/01/12,22:50,0.570,0.854,0.546,1.049,0.732,0.347,0.608,0.577,���k��,5.5,��
2022/01/12,23:00,0.570,0.856,0.546,1.047,0.732,0.347,0.607,0.577,�k��,2.0,��
2022/01/12,23:10,0.571,0.855,0.546,1.049,0.731,0.347,0.607,0.578,��,1.4,��
2022/01/12,23:20,0.570,0.855,0.546,1.050,0.731,0.348,0.608,0.577,�k�k��,0.6,��
2022/01/12,23:30,0.571,0.856,0.547,1.045,0.731,0.347,0.607,0.576,���k��,2.3,��
2022/01/12,23:40,0.572,0.855,0.545,1.047,0.733,0.348,0.606,0.576,�k��,2.6,��
2022/01/12,23:50,0.570,0.855,0.546,1.048,0.733,0.348,0.607,0.576,���k��,3.7,��
